timestamp,wind_dir_avg,wind_spd_avg,wind_spd_max_dir,wind_spd_gust,battery_voltage,lat,long
2021-01-10 00:04:01+00:00,240.0,6.99,235.0,7.87,12.57,47.59359,-54.27349
2021-01-10 00:14:01+00:00,230.0,7.3,227.0,8.2,12.57,47.59359,-54.27349
2021-01-10 00:24:01+00:00,232.0,7.19,232.0,8.56,12.57,47.59359,-54.27349
2021-01-10 00:34:01+00:00,228.0,6.95,230.0,9.07,12.57,47.59359,-54.27349
2021-01-10 00:44:01+00:00,224.0,8.01,230.0,9.24,12.57,47.59359,-54.27349
2021-01-10 00:54:01+00:00,242.0,4.6,234.0,5.08,12.57,47.59359,-54.27349
2021-01-10 01:04:01+00:00,242.0,5.07,242.0,5.89,12.57,47.59359,-54.27349
2021-01-10 01:14:01+00:00,253.0,4.47,258.0,5.11,12.49,47.59359,-54.27349
2021-01-10 01:24:01+00:00,262.0,4.38,260.0,5.01,12.49,47.59359,-54.27349
2021-01-10 01:34:01+00:00,267.0,3.29,273.0,3.76,12.49,47.59359,-54.27349
2021-01-10 01:44:01+00:00,272.0,3.44,269.0,4.01,12.49,47.59359,-54.27349
2021-01-10 01:54:01+00:00,271.0,2.86,272.0,3.41,12.49,47.59359,-54.27349
2021-01-10 02:04:01+00:00,286.0,1.95,290.0,2.34,12.49,47.59359,-54.27349
2021-01-10 02:14:01+00:00,264.0,2.31,256.0,3.01,12.49,47.59359,-54.27349
2021-01-10 02:24:01+00:00,264.0,2.92,260.0,3.32,12.49,47.59359,-54.27349
2021-01-10 02:34:01+00:00,275.0,2.59,275.0,3.1,12.49,47.59359,-54.27349
2021-01-10 02:44:01+00:00,299.0,2.04,307.0,2.38,12.49,47.59359,-54.27349
2021-01-10 02:54:01+00:00,346.0,2.47,337.0,2.81,12.49,47.59359,-54.27349
2021-01-10 03:04:01+00:00,315.0,1.33,329.0,1.93,12.49,47.59359,-54.27349
2021-01-10 03:14:01+00:00,297.0,0.94,298.0,1.13,12.49,47.59359,-54.27349
2021-01-10 03:24:01+00:00,322.0,2.65,346.0,3.8,12.49,47.59359,-54.27349
2021-01-10 03:34:01+00:00,343.0,2.5,353.0,3.34,12.49,47.59359,-54.27349
2021-01-10 03:44:01+00:00,10.0,0.95,49.0,1.56,12.49,47.59359,-54.27349
2021-01-10 03:54:01+00:00,315.0,1.22,312.0,1.77,12.49,47.59359,-54.27349
2021-01-10 04:04:01+00:00,8.0,1.35,13.0,1.9,12.49,47.59359,-54.27349
2021-01-10 04:14:01+00:00,357.0,2.84,341.0,3.65,12.49,47.59359,-54.27349
2021-01-10 04:24:01+00:00,45.0,2.51,33.0,3.16,12.49,47.59359,-54.27349
2021-01-10 04:34:01+00:00,10.0,2.84,8.0,3.23,12.49,47.59359,-54.27349
2021-01-10 04:44:01+00:00,50.0,3.14,41.0,3.67,12.49,47.59359,-54.27349
2021-01-10 04:54:01+00:00,23.0,3.81,26.0,4.55,12.49,47.59359,-54.27349
2021-01-10 05:04:01+00:00,29.0,2.94,42.0,3.77,12.49,47.59359,-54.27349
2021-01-10 05:14:01+00:00,42.0,2.75,45.0,3.2,12.41,47.59359,-54.27349
2021-01-10 05:24:01+00:00,19.0,2.52,19.0,3.06,12.41,47.59359,-54.27349
2021-01-10 05:34:01+00:00,37.0,6.29,35.0,7.64,12.41,47.59359,-54.27349
2021-01-10 05:44:01+00:00,72.0,3.69,78.0,4.23,12.41,47.59359,-54.27349
2021-01-10 05:54:01+00:00,34.0,5.13,29.0,5.74,12.41,47.59359,-54.27349
2021-01-10 06:04:01+00:00,36.0,5.02,34.0,5.94,12.41,47.59359,-54.27349
2021-01-10 06:14:01+00:00,45.0,5.47,43.0,6.79,12.41,47.59359,-54.27349
2021-01-10 06:24:01+00:00,53.0,6.23,56.0,7.69,12.41,47.59359,-54.27349
2021-01-10 06:34:01+00:00,28.0,5.58,30.0,6.22,12.41,47.59359,-54.27349
2021-01-10 06:44:01+00:00,45.0,5.31,44.0,5.98,12.41,47.59359,-54.27349
2021-01-10 06:54:01+00:00,43.0,6.28,52.0,7.3,12.41,47.59359,-54.27349
2021-01-10 07:04:01+00:00,44.0,6.32,36.0,7.16,12.41,47.59359,-54.27349
2021-01-10 07:14:01+00:00,36.0,5.57,37.0,6.7,12.41,47.59359,-54.27349
2021-01-10 07:24:01+00:00,47.0,6.49,56.0,7.56,12.41,47.59359,-54.27349
2021-01-10 07:34:01+00:00,66.0,6.16,67.0,7.61,12.41,47.59359,-54.27349
2021-01-10 07:44:01+00:00,56.0,6.46,60.0,7.24,12.41,47.59359,-54.27349
2021-01-10 07:54:01+00:00,71.0,6.32,70.0,7.35,12.41,47.59359,-54.27349
2021-01-10 08:04:01+00:00,49.0,8.23,40.0,9.77,12.41,47.59359,-54.27349
2021-01-10 08:14:01+00:00,50.0,8.62,51.0,9.2,12.41,47.59359,-54.27349
2021-01-10 08:24:01+00:00,67.0,8.03,70.0,9.18,12.41,47.59359,-54.27349
2021-01-10 08:34:01+00:00,65.0,7.09,72.0,8.11,12.41,47.59359,-54.27349
2021-01-10 08:44:01+00:00,66.0,8.02,63.0,8.96,12.41,47.59359,-54.27349
2021-01-10 08:54:01+00:00,51.0,9.04,51.0,10.29,12.41,47.59359,-54.27349
2021-01-10 09:04:01+00:00,50.0,8.43,46.0,9.67,12.41,47.59359,-54.27349
2021-01-10 09:14:01+00:00,56.0,8.36,57.0,9.86,12.41,47.59359,-54.27349
2021-01-10 09:24:01+00:00,55.0,8.25,53.0,9.95,12.41,47.59359,-54.27349
2021-01-10 09:34:01+00:00,62.0,8.15,61.0,9.61,12.41,47.59359,-54.27349
2021-01-10 09:44:01+00:00,58.0,7.98,53.0,9.2,12.41,47.59359,-54.27349
2021-01-10 09:54:01+00:00,61.0,8.35,57.0,9.84,12.41,47.59359,-54.27349
2021-01-10 10:04:01+00:00,74.0,7.63,76.0,9.33,12.41,47.59359,-54.27349
2021-01-10 10:14:01+00:00,61.0,9.72,59.0,11.11,12.41,47.59359,-54.27349
2021-01-10 10:24:01+00:00,51.0,8.66,54.0,10.19,12.41,47.59359,-54.27349
2021-01-10 10:34:01+00:00,61.0,9.49,59.0,11.3,12.41,47.59359,-54.27349
2021-01-10 10:44:01+00:00,58.0,9.2,56.0,10.15,12.41,47.59359,-54.27349
2021-01-10 10:54:01+00:00,53.0,10.98,50.0,12.87,12.41,47.59359,-54.27349
2021-01-10 11:04:01+00:00,53.0,9.68,53.0,11.67,12.41,47.59359,-54.27349
2021-01-10 11:14:01+00:00,57.0,8.94,62.0,10.74,12.33,47.59359,-54.27349
2021-01-10 11:24:01+00:00,53.0,9.89,54.0,11.58,12.33,47.59359,-54.27349
2021-01-10 11:34:01+00:00,41.0,9.81,40.0,11.04,12.33,47.59359,-54.27349
2021-01-10 11:44:01+00:00,41.0,10.66,38.0,11.91,12.33,47.59359,-54.27349
2021-01-10 11:54:01+00:00,39.0,10.15,39.0,11.24,12.33,47.59359,-54.27349
2021-01-10 12:04:01+00:00,40.0,10.66,46.0,11.93,12.33,47.59359,-54.27349
2021-01-10 12:14:01+00:00,41.0,11.94,41.0,12.81,12.33,47.59359,-54.27349
2021-01-10 12:24:01+00:00,50.0,10.73,56.0,12.11,12.33,47.59359,-54.27349
2021-01-10 12:34:01+00:00,49.0,11.23,48.0,13.2,12.33,47.59359,-54.27349
2021-01-10 12:44:01+00:00,55.0,11.22,56.0,12.22,12.33,47.59359,-54.27349
2021-01-10 12:54:01+00:00,52.0,10.58,48.0,11.85,12.33,47.59359,-54.27349
2021-01-10 13:04:01+00:00,52.0,9.62,58.0,10.39,12.33,47.59359,-54.27349
2021-01-10 13:14:01+00:00,53.0,9.04,57.0,10.87,12.65,47.59359,-54.27349
2021-01-10 13:24:01+00:00,46.0,9.47,52.0,10.89,12.65,47.59359,-54.27349
2021-01-10 13:34:01+00:00,54.0,9.3,55.0,10.75,12.65,47.59359,-54.27349
2021-01-10 13:44:01+00:00,52.0,11.1,52.0,12.62,12.65,47.59359,-54.27349
2021-01-10 13:54:01+00:00,39.0,8.9,37.0,10.65,12.65,47.59359,-54.27349
2021-01-10 14:04:01+00:00,41.0,9.36,29.0,10.74,12.65,47.59359,-54.27349
2021-01-10 14:14:01+00:00,51.0,11.23,45.0,13.16,12.89,47.59359,-54.27349
2021-01-10 14:24:01+00:00,45.0,11.1,46.0,12.84,12.89,47.59359,-54.27349
2021-01-10 14:34:01+00:00,54.0,11.22,47.0,12.52,12.89,47.59359,-54.27349
2021-01-10 14:44:01+00:00,44.0,11.37,45.0,13.17,12.89,47.59359,-54.27349
2021-01-10 14:54:01+00:00,46.0,10.44,48.0,12.33,12.89,47.59359,-54.27349
2021-01-10 15:04:01+00:00,49.0,11.06,42.0,13.22,12.89,47.59359,-54.27349
2021-01-10 15:14:01+00:00,36.0,11.99,40.0,13.97,13.29,47.59359,-54.27349
2021-01-10 15:24:01+00:00,35.0,12.0,37.0,13.4,13.29,47.59359,-54.27349
2021-01-10 15:34:01+00:00,38.0,12.11,39.0,14.51,13.29,47.59359,-54.27349
2021-01-10 15:44:01+00:00,41.0,14.18,41.0,16.37,13.29,47.59359,-54.27349
2021-01-10 15:54:01+00:00,41.0,12.56,46.0,14.82,13.29,47.59359,-54.27349
2021-01-10 16:04:01+00:00,37.0,13.19,34.0,15.02,13.29,47.59359,-54.27349
2021-01-10 16:14:01+00:00,35.0,12.59,37.0,14.24,13.44,47.59359,-54.27349
2021-01-10 16:24:01+00:00,38.0,13.67,37.0,15.26,13.44,47.59359,-54.27349
2021-01-10 16:34:01+00:00,34.0,12.8,32.0,14.64,13.44,47.59359,-54.27349
2021-01-10 16:44:01+00:00,32.0,13.43,31.0,15.73,13.44,47.59359,-54.27349
2021-01-10 16:54:01+00:00,35.0,13.77,35.0,15.44,13.44,47.59359,-54.27349
2021-01-10 17:04:01+00:00,35.0,12.32,33.0,14.11,13.44,47.59359,-54.27349
2021-01-10 17:14:01+00:00,34.0,13.12,37.0,14.78,13.44,47.59359,-54.27349
2021-01-10 17:24:01+00:00,34.0,13.01,36.0,14.92,13.44,47.59359,-54.27349
2021-01-10 17:34:01+00:00,36.0,12.97,35.0,14.86,13.44,47.59359,-54.27349
2021-01-10 17:44:01+00:00,29.0,13.57,26.0,15.04,13.44,47.59359,-54.27349
2021-01-10 17:54:01+00:00,34.0,13.89,32.0,15.76,13.44,47.59359,-54.27349
2021-01-10 18:04:01+00:00,30.0,13.66,33.0,15.31,13.44,47.59359,-54.27349
2021-01-10 18:14:01+00:00,30.0,12.87,33.0,14.95,13.37,47.59359,-54.27349
2021-01-10 18:24:01+00:00,28.0,12.38,34.0,14.39,13.37,47.59359,-54.27349
2021-01-10 18:34:01+00:00,31.0,12.46,35.0,13.7,13.37,47.59359,-54.27349
2021-01-10 18:44:01+00:00,24.0,12.33,24.0,14.01,13.37,47.59359,-54.27349
2021-01-10 18:54:01+00:00,34.0,12.96,33.0,15.43,13.37,47.59359,-54.27349
2021-01-10 19:04:01+00:00,30.0,14.69,30.0,16.73,13.37,47.59359,-54.27349
2021-01-10 19:14:01+00:00,33.0,13.6,36.0,15.62,13.05,47.59359,-54.27349
2021-01-10 19:24:01+00:00,31.0,11.93,30.0,14.39,13.05,47.59359,-54.27349
2021-01-10 19:34:01+00:00,21.0,13.4,22.0,15.59,13.05,47.59359,-54.27349
2021-01-10 19:44:01+00:00,33.0,13.54,35.0,15.86,13.05,47.59359,-54.27349
2021-01-10 19:54:01+00:00,29.0,13.27,40.0,15.45,13.05,47.59359,-54.27349
2021-01-10 20:04:01+00:00,31.0,12.57,29.0,13.77,13.05,47.59359,-54.27349
2021-01-10 20:14:01+00:00,36.0,12.75,36.0,14.87,12.73,47.59359,-54.27349
2021-01-10 20:24:01+00:00,33.0,14.06,33.0,15.96,12.73,47.59359,-54.27349
2021-01-10 20:34:01+00:00,29.0,14.44,31.0,16.76,12.73,47.59359,-54.27349
2021-01-10 20:44:01+00:00,21.0,12.53,24.0,13.94,12.73,47.59359,-54.27349
2021-01-10 20:54:01+00:00,26.0,11.37,33.0,12.8,12.73,47.59359,-54.27349
2021-01-10 21:04:01+00:00,26.0,11.48,28.0,13.54,12.73,47.59359,-54.27349
2021-01-10 21:14:01+00:00,28.0,12.3,33.0,14.7,12.65,47.59359,-54.27349
2021-01-10 21:24:01+00:00,34.0,14.78,35.0,16.47,12.65,47.59359,-54.27349
2021-01-10 21:34:01+00:00,35.0,14.37,41.0,15.76,12.65,47.59359,-54.27349
2021-01-10 21:44:01+00:00,31.0,14.49,36.0,18.05,12.65,47.59359,-54.27349
2021-01-10 21:54:01+00:00,27.0,12.32,27.0,14.09,12.65,47.59359,-54.27349
2021-01-10 22:04:01+00:00,27.0,13.59,32.0,15.61,12.65,47.59359,-54.27349
2021-01-10 22:14:01+00:00,19.0,13.24,17.0,15.69,12.57,47.59359,-54.27349
2021-01-10 22:24:01+00:00,21.0,11.92,23.0,13.85,12.57,47.59359,-54.27349
2021-01-10 22:34:01+00:00,24.0,13.55,19.0,15.56,12.57,47.59359,-54.27349
2021-01-10 22:44:01+00:00,15.0,10.22,3.0,12.11,12.57,47.59359,-54.27349
2021-01-10 22:54:01+00:00,27.0,12.74,31.0,14.35,12.57,47.59359,-54.27349
2021-01-10 23:04:01+00:00,22.0,13.38,20.0,15.61,12.57,47.59359,-54.27349
2021-01-10 23:14:01+00:00,19.0,12.91,20.0,14.81,12.57,47.59359,-54.27349
2021-01-10 23:24:01+00:00,17.0,11.83,18.0,13.67,12.57,47.59359,-54.27349
2021-01-10 23:34:01+00:00,19.0,11.7,16.0,12.76,12.57,47.59359,-54.27349
2021-01-10 23:44:01+00:00,19.0,11.93,18.0,14.24,12.57,47.59359,-54.27349
2021-01-10 23:54:01+00:00,14.0,9.89,15.0,11.96,12.57,47.59359,-54.27349
